Location: ????????
(56.1167°N, 38.6333°E)
Time: 21:50:25
(UTC+00:00)

ATLAS CENTAUR R/B - Pass Details

Date: 18 November 2025
Orbit: 344 x 424 km, 64.6° (Epoch: 06 December)

Event Time Altitude Azimuth Distance (km) Brightness Sun altitude
Rises 15:45:21 0° 275° (W) 2,450 6.1 -20.8°
Reaches altitude 10° 15:47:45 10° 290° (WNW) 1,578 4.6 -21.1°
Maximum altitude 15:50:39 23° 346° (NNW) 989 2.7 -21.5°
Enters shadow 15:50:52 23° 351° (N) 992 2.6 -21.5°
